TimeCST,TemperatureF,Dew PointF,Humidity,Sea Level PressureIn,VisibilityMPH,Wind Direction,Wind SpeedMPH,Gust SpeedMPH,PrecipitationIn,Events,Conditions,WindDirDegrees,DateUTC
12:53 AM,54.0,39.9,59,30.16,10.0,North,10.4,-,N/A,,Clear,350,2011-11-09 06:53:00
1:53 AM,52.0,41.0,66,30.18,10.0,NNW,12.7,20.7,N/A,,Clear,340,2011-11-09 07:53:00
2:53 AM,50.0,39.9,68,30.19,10.0,NNW,12.7,-,N/A,,Clear,340,2011-11-09 08:53:00
3:53 AM,48.0,37.0,66,30.20,10.0,NNW,16.1,25.3,N/A,,Clear,340,2011-11-09 09:53:00
4:53 AM,46.9,36.0,66,30.23,10.0,NNW,10.4,21.9,N/A,,Clear,340,2011-11-09 10:53:00
6:53 AM,44.1,35.1,71,30.28,10.0,North,11.5,18.4,N/A,,Clear,350,2011-11-09 12:53:00
8:53 AM,48.9,35.1,59,30.35,10.0,North,15.0,24.2,N/A,,Clear,360,2011-11-09 14:53:00
9:53 AM,52.0,33.1,49,30.37,10.0,NNE,17.3,31.1,N/A,,Clear,20,2011-11-09 15:53:00
10:53 AM,55.0,32.0,42,30.38,10.0,NNE,16.1,25.3,N/A,,Clear,30,2011-11-09 16:53:00
11:53 AM,57.9,32.0,37,30.35,10.0,North,15.0,26.5,N/A,,Clear,10,2011-11-09 17:53:00
12:53 PM,60.1,30.9,33,30.32,10.0,North,15.0,21.9,N/A,,Clear,360,2011-11-09 18:53:00
2:53 PM,60.1,28.0,30,30.31,10.0,NNE,13.8,21.9,N/A,,Clear,30,2011-11-09 20:53:00
3:53 PM,59.0,28.0,31,30.30,10.0,North,15.0,24.2,N/A,,Clear,360,2011-11-09 21:53:00
4:53 PM,59.0,26.1,28,30.31,10.0,North,11.5,23.0,N/A,,Clear,10,2011-11-09 22:53:00
5:53 PM,57.0,26.1,30,30.33,10.0,North,11.5,17.3,N/A,,Clear,10,2011-11-09 23:53:00
6:53 PM,55.0,27.0,34,30.36,10.0,North,3.5,-,N/A,,Clear,350,2011-11-10 00:53:00
7:53 PM,52.0,28.0,40,30.40,10.0,NNW,4.6,-,N/A,,Clear,330,2011-11-10 01:53:00
8:53 PM,48.9,28.0,44,30.41,10.0,NNW,5.8,-,N/A,,Clear,340,2011-11-10 02:53:00
9:53 PM,48.0,28.9,48,30.42,10.0,North,3.5,-,N/A,,Clear,350,2011-11-10 03:53:00
10:53 PM,48.0,28.9,48,30.43,10.0,North,4.6,-,N/A,,Clear,350,2011-11-10 04:53:00
11:53 PM,46.9,30.0,52,30.43,10.0,North,4.6,-,N/A,,Clear,350,2011-11-10 05:53:00